Weather observations for the past three days for
Asheboro, Asheboro Municipal Airport
Imperial (Metric)
Date Time (edt) Wind (mph) Vis. (mi.) Weather Sky Cond. Temperature (ºF) Relative Humidity Wind Chill (°F) Heat Index (°F) Pressure Precipitation (in)
Air Dwpt 6 hour altimeter (in) sea level (mb) 1 hr 3 hr 6 hr
Max. Min.
17 18:05 S 7 10.00 Fair CLR 85.1 67.1 55% 88 30.15 0.0
17 17:45 S 5 10.00 Fair CLR 85.6 67.5 55% 89 30.15 0.0
17 17:25 SE 7 10.00 Fair CLR 85.3 66.4 53% 88 30.16 0.0
17 17:05 S 8 10.00 Partly Cloudy SCT037 85.6 66.7 53% 88 30.17 0.0
17 16:45 S 6 10.00 Partly Cloudy SCT035 85.1 66.2 53% 87 30.17 0.0
17 16:25 SE 5 10.00 Partly Cloudy SCT035 SCT043 84.6 68.2 58% 88 30.19 0.0
17 16:05 S 3 10.00 Overcast SCT035 OVC043 84.6 68.2 58% 88 30.19 0.0
17 15:45 S 7 10.00 Mostly Cloudy BKN044 85.3 68.7 58% 89 30.19 0.0
17 15:25 SE 3 10.00 Overcast SCT032 OVC044 83.8 69.4 62% 88 30.2 0.0
17 15:05 S 7 10.00 Overcast SCT030 SCT036 OVC044 83.5 69.4 63% 87 30.21 0.0
17 14:45 S 3 10.00 Mostly Cloudy BKN042 83.5 68.9 62% 87 30.21 0.0
17 14:25 S 3 10.00 Overcast SCT029 OVC040 82.6 69.4 65% 86 30.22 0.0
17 14:05 Calm 10.00 Overcast BKN029 OVC038 82.8 68.7 63% 86 30.22 0.0
17 13:45 Calm 10.00 Overcast OVC036 82.2 68.7 64% 85 30.22 0.0
17 13:25 S 3 10.00 Overcast OVC034 82.2 68.2 63% 85 30.23 0.0
17 13:05 Calm 10.00 Overcast OVC030 81.5 68.4 64% 84 30.24 0.0
17 12:45 S 5 10.00 Mostly Cloudy BKN028 BKN035 82 68 63% 85 30.23 0.0
17 12:25 SW 7 10.00 Mostly Cloudy BKN030 BKN035 81.7 68 63% 85 30.24 0.0
17 12:05 SW 3 10.00 Overcast OVC033 80.6 67.5 64% 83 30.24 0.0
17 11:45 W 5 10.00 Partly Cloudy SCT033 80.6 67.1 64% 83 30.24 0.0
17 11:25 S 6 10.00 Partly Cloudy SCT025 SCT042 79.9 66.6 64% 82 30.25 0.0
17 11:05 S 5 10.00 Mostly Cloudy BKN025 BKN035 BKN041 78.4 65.8 65% 80 30.25 0.0
17 10:45 S 5 10.00 Mostly Cloudy BKN033 77.9 64.6 64% 80 30.25 0.0
17 10:25 S 6 10.00 Mostly Cloudy SCT027 BKN033 77.4 64.6 65% 79 30.26 0.0
17 10:05 S 5 10.00 Mostly Cloudy SCT027 SCT033 BKN050 75.4 65.1 71% 77 30.26 0.0
17 09:45 S 3 10.00 Overcast SCT042 OVC050 74.3 64.8 72% 30.26 0.0
17 09:25 S 5 10.00 Overcast OVC042 73.4 64.8 74% 30.26 0.0
17 09:05 S 3 10.00 Overcast OVC040 72.7 64.4 75% 30.26 0.0
17 08:45 S 3 10.00 Overcast OVC042 72.7 64 74% 30.26 0.0
17 08:25 S 5 10.00 Overcast BKN037 OVC048 72.1 64 76% 30.26 0.0
17 08:05 S 3 10.00 Overcast BKN037 OVC050 71.8 64 77% 30.26 0.0
17 07:45 Calm 10.00 Overcast OVC037 71.6 64.6 79% 30.25 0.0
17 07:25 S 3 10.00 Overcast OVC037 71.6 64.8 79% 30.25 0.0
17 07:05 Calm 10.00 Overcast OVC034 71.6 65.3 81% 30.24 0.0
17 06:45 S 3 10.00 Overcast SCT031 BKN037 OVC060 71.6 65.1 80% 30.24 0.0
17 06:25 SE 7 10.00 Overcast BKN039 OVC060 71.6 65.1 80% 30.23 0.0
17 06:05 SE 3 10.00 Overcast BKN041 OVC049 71.6 65.3 81% 30.22 0.0
17 05:45 SE 5 10.00 Overcast BKN035 OVC049 71.6 65.3 81% 30.22 0.0
17 05:25 SE 5 10.00 Mostly Cloudy BKN033 BKN049 71.2 65.7 83% 30.22 0.0
17 05:05 SE 5 10.00 Overcast BKN033 OVC040 71.8 65.8 82% 30.21 0.0
17 04:45 Calm 10.00 Overcast SCT032 OVC040 71.6 65.7 82% 30.21 0.0
17 04:25 Calm 10.00 Overcast SCT032 BKN042 OVC075 71.6 65.5 81% 30.21 0.0
17 04:05 SE 3 10.00 Partly Cloudy SCT044 SCT075 71.6 65.7 82% 30.2 0.0
17 03:45 S 3 10.00 Mostly Cloudy BKN075 72.5 65.5 79% 30.2 0.0
17 03:25 S 7 10.00 Mostly Cloudy SCT042 BKN075 72.9 65.3 77% 30.19 0.0
17 03:05 SE 6 10.00 Overcast BKN042 OVC048 73.6 64.9 74% 30.2 0.0
17 02:45 S 5 10.00 Overcast BKN048 BKN050 OVC065 73.9 64.9 74% 30.21 0.0
17 02:25 Calm 10.00 Overcast OVC050 73.9 64.9 74% 30.21 0.0
17 02:05 S 3 10.00 Partly Cloudy SCT050 74.3 64.9 73% 30.21 0.0
17 01:45 S 5 10.00 Partly Cloudy SCT050 74.7 65.3 73% 30.2 0.0
17 01:25 S 6 10.00 Mostly Cloudy BKN050 75.4 65.3 71% 77 30.21 0.0
17 01:05 S 6 10.00 Mostly Cloudy BKN050 76.1 65.5 70% 78 30.21 0.0
17 00:45 S 3 10.00 Fair CLR 76.3 65.8 70% 78 30.21 0.0
17 00:25 S 6 10.00 Fair CLR 77 66.4 70% 79 30.2 0.0
17 00:05 S 7 10.00 Partly Cloudy SCT050 SCT080 78.1 66.6 68% 80 30.21 0.0
16 23:45 S 6 10.00 Overcast BKN036 OVC048 78.6 67.5 69% 81 30.21 0.0
16 23:25 S 6 10.00 Overcast SCT034 OVC048 78.8 67.3 68% 81 30.2 0.0
16 22:45 S 5 10.00 Overcast BKN050 OVC065 77.9 66.2 67% 80 30.18 0.0
16 22:25 Calm 10.00 Overcast BKN050 OVC075 78.4 66 66% 80 30.18 0.0
16 22:05 Calm 10.00 Overcast OVC050 79.2 64.6 61% 81 30.17 0.0
16 21:45 Calm 10.00 Overcast OVC050 78.6 65.8 65% 81 30.17 0.0
16 21:25 Calm 10.00 Overcast OVC050 78.8 65.1 63% 81 30.17 0.0
16 21:05 Calm 10.00 Mostly Cloudy SCT050 BKN070 79.3 65.5 63% 81 30.16 0.0
16 20:45 Calm 10.00 Partly Cloudy SCT050 SCT070 79.7 64.9 61% 82 30.16 0.0
16 20:25 Calm 10.00 Partly Cloudy SCT050 80.2 64.9 60% 82 30.16 0.0
16 20:05 Calm 10.00 Partly Cloudy SCT050 81.3 65.1 58% 83 30.15 0.0
16 19:45 Calm 10.00 Fair CLR 82.4 65.1 56% 84 30.15 0.0
16 19:25 Calm 10.00 Fair CLR 82.6 64.9 55% 84 30.14 0.0
16 19:05 Calm 10.00 Partly Cloudy SCT050 SCT075 83.1 65.1 55% 85 30.15 0.0
16 18:45 E 3 10.00 Overcast SCT050 BKN060 OVC080 83.5 65.7 55% 86 30.15 0.0
16 18:25 E 3 10.00 Overcast BKN055 OVC070 83.7 65.5 54% 86 30.15 0.0
16 18:05 Calm 10.00 Mostly Cloudy BKN055 BKN095 83.8 64.8 53% 86 30.15 0.0
16 17:45 E 3 10.00 Partly Cloudy SCT100 84.4 63.9 50% 86 30.14 0.0
16 17:25 E 5 10.00 Mostly Cloudy SCT050 BKN100 85.6 64.8 50% 87 30.14 0.0
16 17:05 E 5 10.00 Mostly Cloudy BKN050 86 63.9 48% 87 30.15 0.0
16 16:45 E 3 10.00 Overcast OVC050 85.6 63.7 48% 87 30.16 0.0
16 16:05 E 5 10.00 Partly Cloudy SCT090 85.1 63.3 48% 86 30.15 0.0
16 15:45 E 3 10.00 Mostly Cloudy BKN100 84.4 63.1 49% 85 30.16 0.0
16 15:25 E 3 10.00 Mostly Cloudy SCT048 SCT055 BKN100 84.6 63.1 49% 86 30.17 0.0
16 15:05 S 3 10.00 Mostly Cloudy SCT048 BKN070 BKN100 84.7 63.5 49% 86 30.17 0.0
16 14:45 E 5 10.00 Mostly Cloudy SCT048 SCT070 BKN100 83.8 63.9 51% 85 30.18 0.0
16 14:25 SE 5 10.00 Mostly Cloudy BKN100 83.5 63.9 52% 85 30.18 0.0
16 14:05 SE 3 10.00 Partly Cloudy SCT050 SCT100 SCT120 82.9 63 51% 84 30.19 0.0
16 13:45 S 5 0.00 NULL NULL 82.6 63.9 53% 84 30.2 0.0
16 13:25 SE 5 10.00 Partly Cloudy SCT050 SCT120 81.7 63.7 54% 83 30.2 0.0
16 13:05 E 5 10.00 Partly Cloudy SCT120 81 63.5 55% 82 30.21 0.0
16 12:45 SE 3 10.00 Partly Cloudy SCT090 SCT120 79.7 63.3 57% 81 30.21 0.0
16 12:25 E 3 10.00 Mostly Cloudy SCT090 BKN110 78.8 63.1 59% 80 30.22 0.0
16 12:05 E 6 10.00 Mostly Cloudy BKN110 78.3 63.5 61% 80 30.22 0.0
16 11:45 NE 3 10.00 Mostly Cloudy SCT065 SCT080 BKN110 77.9 64.2 63% 80 30.22 0.0
16 11:25 S 3 10.00 Mostly Cloudy SCT065 BKN075 BKN085 77 64.2 65% 79 30.22 0.0
16 11:05 E 3 10.00 Mostly Cloudy SCT049 SCT065 BKN075 77.2 63.7 63% 79 30.22 0.0
16 10:45 SE 3 10.00 Overcast BKN049 OVC080 76.5 63.7 65% 78 30.22 0.0
16 10:25 Calm 10.00 Overcast BKN047 OVC055 76.1 63.1 64% 78 30.22 0.0
16 10:05 Calm 10.00 Overcast SCT042 BKN050 OVC090 75.2 63.5 67% 77 30.22 0.0
16 09:45 SE 3 10.00 Mostly Cloudy SCT042 BKN048 BKN060 75.2 63.3 67% 77 30.22 0.0
16 09:25 Calm 10.00 Mostly Cloudy SCT046 BKN080 BKN100 75.2 64.2 69% 77 30.21 0.0
16 09:05 Calm 10.00 Overcast BKN046 OVC080 74.3 63.7 70% 30.2 0.0
16 08:45 E 3 10.00 Mostly Cloudy BKN046 BKN080 74.5 64.2 70% 30.19 0.0
16 08:25 Calm 10.00 Partly Cloudy SCT080 73.6 65.3 75% 30.18 0.0
16 08:05 SE 3 10.00 Partly Cloudy SCT048 SCT060 SCT085 72.5 65.5 79% 30.17 0.0
16 07:45 Calm 10.00 Overcast BKN046 BKN060 OVC090 72.1 66.2 82% 30.17 0.0
16 07:25 Calm 10.00 Mostly Cloudy SCT046 BKN100 71.6 66.9 85% 30.17 0.0
16 07:05 E 6 10.00 Mostly Cloudy SCT046 BKN100 71.2 67.5 88% 30.16 0.0
16 06:45 S 3 10.00 Mostly Cloudy BKN048 BKN100 71.1 68 90% 30.15 0.0
16 06:25 E 3 10.00 Overcast OVC048 71.2 68 90% 30.14 0.0
16 06:05 SE 6 10.00 Mostly Cloudy BKN048 71.2 68 90% 30.15 0.0
16 05:45 SE 5 10.00 Partly Cloudy SCT048 SCT100 71.6 68.2 89% 30.14 0.0
16 05:25 SE 6 10.00 Partly Cloudy SCT100 72.1 68.4 88% 30.13 0.0
16 05:05 SE 8 10.00 Mostly Cloudy SCT065 SCT075 BKN090 72.5 68.2 86% 30.13 0.0
16 04:45 SE 6 10.00 Overcast BKN065 OVC090 72.5 68 86% 30.13 0.0
16 04:25 SE 6 10.00 Overcast BKN065 OVC090 72.5 67.1 83% 30.13 0.0
16 04:05 SE 7 10.00 Mostly Cloudy SCT070 BKN080 72.1 65.7 80% 30.12 0.0
16 03:45 SE 6 10.00 Partly Cloudy SCT080 72.1 64 76% 30.11 0.0
16 03:25 SE 8 10.00 Mostly Cloudy BKN080 72.5 62.6 71% 30.12 0.0
16 03:05 SE 6 10.00 Fair CLR 72.7 61 67% 30.12 0.0
16 02:45 SE 6 10.00 Fair CLR 73.4 58.8 60% 30.11 0.0
16 02:25 SE 5 10.00 Fair CLR 73.8 56.3 55% 30.11 0.0
16 02:00 E 3 10.00 Fair CLR 74.7 55 51% 30.11 0.0
16 01:45 E 5 10.00 Partly Cloudy SCT085 75.2 54.7 49% 78 30.11 0.0
16 01:25 E 6 10.00 Mostly Cloudy BKN085 75.4 55 49% 78 30.11 0.0
16 01:05 E 3 10.00 Partly Cloudy SCT085 75.7 55.4 49% 78 30.11 0.0
16 00:45 E 3 10.00 Fair CLR 75.7 56.5 51% 78 30.11 0.0
16 00:25 E 3 10.00 Fair CLR 76.3 56.5 50% 78 30.11 0.0
16 00:05 E 3 10.00 Fair CLR 76.8 57 51% 79 30.11 0.0
15 23:45 E 5 10.00 Fair CLR 77.4 57.4 50% 79 30.11 0.0
15 23:25 E 3 10.00 Fair CLR 78.1 57.2 49% 79 30.1 0.0
15 22:45 E 6 10.00 Partly Cloudy SCT090 79 58.6 50% 80 30.09 0.0
15 22:25 NE 3 10.00 Fair CLR 78.1 59.7 53% 79 30.1 0.0
15 21:45 Calm 0.00 NULL NULL 77.4 63 61% 79 30.09 0.0
15 21:25 Calm 0.00 NULL NULL 75.7 63.3 65% 78 30.08 0.0
15 20:45 Calm 0.00 NULL NULL 78.3 64 62% 80 30.07 0.0
15 20:25 Calm 0.00 NULL NULL 80.2 63.5 57% 82 30.05 0.0
15 19:45 Calm 0.00 NULL NULL 84.4 60.8 45% 85 30.04 0.0
15 19:25 Calm 0.00 NULL NULL 85.3 59.7 42% 85 30.04 0.0
15 18:45 Calm 0.00 NULL NULL 86.5 59.7 40% 86 30.03 0.0
15 18:25 NE 3 0.00 NULL NULL 87.1 58.8 38% 86 30.04 0.0
15 18:05 E 3 10.00 Fair CLR 87.1 58.8 38% 86 30.04 0.0
15 17:45 NE 3 10.00 Fair CLR 87.4 57.9 37% 86 30.04 0.0
15 17:25 Calm 10.00 Fair CLR 87.4 57.7 37% 86 30.04 0.0
15 17:05 Calm 0.00 NULL NULL 87.8 58.5 37% 87 30.04 0.0
15 16:45 N 3 10.00 Partly Cloudy SCT060 87.6 57.9 37% 87 30.04 0.0
15 16:25 E 6 10.00 Partly Cloudy SCT060 87.3 58.3 38% 86 30.04 0.0
15 16:05 N 7 10.00 Partly Cloudy SCT060 87.6 58.8 38% 87 30.04 0.0
15 15:45 NE 8 10.00 Partly Cloudy SCT050 88.5 61 40% 89 30.04 0.0
15 15:25 N 3 10.00 Partly Cloudy SCT050 87.8 60.1 39% 87 30.05 0.0
15 15:05 N 6 10.00 Partly Cloudy SCT050 87.1 60.1 40% 87 30.05 0.0
15 14:45 NE 7 10.00 Partly Cloudy SCT050 86.9 61.2 42% 87 30.05 0.0
15 14:25 NE 5 10.00 Partly Cloudy SCT048 86.4 61.7 44% 87 30.04 0.0
15 14:05 NE 7 10.00 Partly Cloudy SCT048 85.5 63 47% 86 30.05 0.0
15 13:45 N 5 10.00 Fair CLR 85.3 62.6 47% 86 30.06 0.0
15 13:25 NE 7 10.00 Fair CLR 85.1 63.7 49% 86 30.06 0.0
15 13:05 N 6 10.00 Fair CLR 84.9 63.5 49% 86 30.07 0.0
15 12:45 Calm 10.00 Fair CLR 83.7 64 52% 85 30.07 0.0
15 12:25 NE 8 10.00 Fair CLR 84.2 63.9 51% 85 30.07 0.0
15 12:05 E 3 10.00 Fair CLR 83.1 63.3 51% 84 30.07 0.0
15 11:45 N 9 10.00 Fair CLR 81.7 63.3 54% 83 30.07 0.0
15 11:25 N 10 10.00 Fair CLR 82.4 63.5 53% 84 30.07 0.0
15 11:05 N 8 10.00 Fair CLR 80.4 63.5 56% 82 30.07 0.0
15 10:45 NE 7 10.00 Fair CLR 80.6 63 55% 82 30.07 0.0
15 10:25 N 8 10.00 Fair CLR 80.8 63.5 56% 82 30.06 0.0
15 10:05 NE 5 10.00 Fair CLR 79.2 63.3 58% 81 30.06 0.0
15 09:45 NE 6 10.00 Fair CLR 78.3 62.6 59% 80 30.05 0.0
15 09:25 N 9 10.00 Fair CLR 78.6 63.1 59% 80 30.05 0.0
15 09:05 NE 7 10.00 Fair CLR 77.2 62.4 60% 79 30.04 0.0
15 08:45 NE 6 10.00 Fair CLR 77 62.6 61% 79 30.04 0.0
15 08:25 NE 7 10.00 Fair CLR 76.6 63 63% 78 30.04 0.0
15 08:05 NE 5 10.00 Fair CLR 75.7 63.9 67% 78 30.04 0.0
15 07:45 N 3 10.00 Partly Cloudy SCT070 73.2 66.4 79% 30.03 0.0
15 07:25 N 3 10.00 Mostly Cloudy BKN070 70.9 67.1 88% 30.01 0.0
15 07:05 Calm 10.00 Fair CLR 69.8 67.1 91% 30 0.0
15 06:45 Calm 10.00 Fair CLR 68.9 66.7 93% 29.99 0.0
15 06:25 Calm 10.00 Partly Cloudy SCT070 68.4 66.7 95% 29.99 0.0
15 06:05 Calm 10.00 Mostly Cloudy BKN070 68.4 66.6 94% 29.99 0.0
15 05:45 Calm 10.00 Partly Cloudy SCT070 68.4 66.6 94% 29.97 0.0
15 05:25 Calm 10.00 Partly Cloudy SCT070 68.7 66.2 92% 29.96 0.0
15 05:05 Calm 10.00 Mostly Cloudy SCT070 BKN080 BKN110 69.4 66.6 91% 29.95 0.0
15 04:45 Calm 10.00 Mostly Cloudy SCT070 SCT080 BKN110 69.1 66.4 91% 29.96 0.0
15 04:25 Calm 10.00 Partly Cloudy SCT110 68.9 66.6 92% 29.95 0.0
15 04:05 Calm 10.00 Fair CLR 69.8 66.4 89% 29.95 0.0
15 03:45 Calm 10.00 NULL NULL 69.8 66.7 90% 29.95 0.0
15 03:25 Calm 10.00 Mostly Cloudy BKN060 69.8 66.6 90% 29.95 0.0
15 03:05 Calm 10.00 Fair CLR 69.6 66.6 90% 29.95 0.0
15 02:45 Calm 10.00 Fair CLR 69.3 66.6 91% 29.95 0.0
15 02:25 Calm 10.00 Fair CLR 70.2 66.6 88% 29.94 0.0
15 02:05 Calm 10.00 Fair CLR 70.7 66.7 87% 29.94 0.0
15 01:45 Calm 10.00 Partly Cloudy SCT070 70.9 66.9 87% 29.95 0.0
15 01:25 Calm 10.00 Fair CLR 70.7 67.1 88% 29.94 0.0
15 01:05 Calm 10.00 Fair CLR 71.6 67.3 86% 29.95 0.0
15 00:45 Calm 10.00 Fair CLR 71.6 67.3 86% 29.94 0.0
15 00:25 Calm 10.00 Fair CLR 72.5 67.1 83% 29.95 0.0
15 00:05 Calm 10.00 Fair CLR 72.5 67.1 83% 29.95 0.0
14 23:45 Calm 10.00 Fair CLR 73 67.3 82% 29.95 0.0
14 23:25 Calm 10.00 Fair CLR 72.9 66.9 82% 29.95 0.0
14 23:05 Calm 10.00 Fair CLR 73.2 67.1 81% 29.95 0.0
14 22:45 Calm 10.00 NULL NULL 73.6 67.1 80% 29.94 0.0
14 22:25 Calm 0.00 NULL NULL 74.7 67.8 79% 29.94 0.0
14 22:05 Calm 10.00 Fair CLR 75.2 67.8 78% 76 29.93 0.0
14 21:45 Calm 10.00 Fair CLR 75.7 68 77% 77 29.93 0.0
14 21:25 S 3 10.00 Fair CLR 76.1 69.3 79% 77 29.92 0.0
14 21:05 Calm 10.00 Fair CLR 77.5 70 78% 79 29.91 0.0
14 20:45 Calm 10.00 Fair CLR 79 69.8 74% 82 29.91 0.0
14 20:25 S 3 10.00 Fair CLR 81.3 69.4 67% 85 29.91 0.0
14 20:05 Calm 10.00 Fair CLR 83.1 67.3 59% 86 29.91 0.0
14 19:45 Calm 10.00 Fair CLR 87.1 62.1 43% 88 29.9 0.0
14 19:25 Calm 10.00 Fair CLR 87.8 61.9 42% 88 29.9 0.0
14 19:05 SW 3 10.00 Fair CLR 88.2 60.4 39% 88 29.9 0.0
14 18:45 W 5 10.00 Fair CLR 88.7 59.9 38% 88 29.9 0.0
14 18:25 W 3 10.00 Fair CLR 88.5 60.3 39% 88 29.89 0.0
Date Time (edt) Wind (mph) Vis. (mi.) Weather Sky Cond. Air Dwpt Max. Min. Relative Humidity Wind Chill (°F) Heat Index (°F) altimeter (in) sea level (mb) 1 hr 3 hr 6 hr
6 hour
Temperature (ºF) Pressure Precipitation (in)